Simultaneous Nadir Overpasses (SNOs) Predictions

Prediction of SNOs between LANDSAT-8 and METOP-A Satellite Orbit:

Table of predicted SNOs for the next 14.0 days since TLE Epoch: 8/4/2018
Index Date (LANDSAT-8) Time (LANDSAT-8) Lat,Lon (LANDSAT-8) SZA (LANDSAT-8 ) Date (METOP-A) Time (METOP-A) Lat,Lon (METOP-A) SZA (METOP-A ) Distance(km) Time Diff (sec)
1 08/05/2018 11:50:07 -81.38,-133.06 113.14 08/05/2018 11:49:33 -81.38,-132.97 113.14 1.57 34
2 08/05/2018 12:39:33 81.39, 34.73 66.89 08/05/2018 12:40:13 81.39, 34.56 66.89 2.91 40
3 08/08/2018 07:24:24 -81.38, -66.65 112.36 08/08/2018 07:23:50 -81.38, -66.69 112.38 0.87 34
4 08/08/2018 08:13:50 81.38, 101.12 67.67 08/08/2018 08:14:29 81.39, 101.19 67.70 1.26 39
5 08/11/2018 02:58:40 -81.38, -0.25 111.54 08/11/2018 02:58:06 -81.38, -0.43 111.57 2.90 34
6 08/11/2018 03:48:06 81.38, 167.48 68.49 08/11/2018 03:48:45 81.39, 167.41 68.50 1.35 39
7 08/13/2018 22:32:56 -81.39, 66.50 110.64 08/13/2018 22:32:21 -81.39, 66.62 110.64 1.97 35
8 08/13/2018 23:22:22 81.40,-125.79 69.39 08/13/2018 23:23:01 81.39,-125.97 69.38 3.20 39
9 08/16/2018 18:07:13 -81.39, 132.85 109.76 08/16/2018 18:06:38 -81.39, 132.86 109.78 0.27 35




NCC Satellite Simultaneous Nadir Overpasses (SNOs) Prediction Service
